Simultaneous Nadir Overpasses (SNOs) Predictions

Prediction of SNOs between GOES-17 and AQUA Satellite Orbit:

Table of predicted SNOs for the next 14.0 days since TLE Epoch: 9/28/2019
Index Date Time (GOES-17) GOES-17 Lat,Lon AQUA Lat,Lon Distance(km) Time Diff (sec)
1 09/28/2019 22:33:44 0.03,-137.20 0.53,-134.98 252.94 80
2 09/29/2019 10:57:39 -0.03,-137.21 0.57,-140.14 332.76 80
3 10/01/2019 10:42:48 -0.01,-137.21 -0.05,-137.18 4.40 80
4 10/03/2019 10:30:37 -0.00,-137.20 -0.67,-134.23 338.88 80
5 10/03/2019 22:54:40 -0.00,-137.19 -0.49,-139.41 252.34 80
6 10/05/2019 22:39:50 -0.00,-137.18 0.13,-136.45 82.22 80
7 10/07/2019 22:27:39 0.00,-137.16 0.77,-133.50 416.27 80
8 10/08/2019 10:51:33 0.00,-137.16 0.34,-138.65 169.99 80
9 10/10/2019 10:36:42 0.00,-137.14 -0.29,-135.70 163.72 80
10 10/10/2019 23:00:47 -0.01,-137.13 -0.79,-140.89 427.77 80




NCC Satellite Simultaneous Nadir Overpasses (SNOs) Prediction Service
